Location: Gleizolles
(44.4833°N, 6.7667°E)
Time: 04:49:30
(UTC+00:00)

Vanguard 2 - Pass Details

Date: 04 July 2024
Orbit: 552 x 2913 km, 32.9° (Epoch: 17 July)

Event Time Altitude Azimuth Distance (km) Brightness Sun altitude
Exits shadow 02:18:59 16° 220° (SW) 3,200 10.0 -13.2°
Maximum altitude 02:26:17 41° 159° (SSE) 2,624 10.0 -12.4°
Drops below altitude 10° 02:39:39 10° 97° (E) 5,335 12.3 -10.9°
Sets 02:44:40 0° 92° (E) 6,570 12.9 -10.3°
